Location: Dal�� Lhota
(48.7500°N, 14.0167°E)
Time: 03:57:41
(UTC+00:00)

Transit 2A - Pass Details

Date: 02 August 2021
Orbit: 594 x 964 km, 66.7° (Epoch: 21 September)

Event Time Altitude Azimuth Distance (km) Brightness Sun altitude
Rises 11:37:44 0° 327° (NNW) 3,142 9.0 58.4°
Reaches altitude 10° 11:40:28 10° 342° (NNW) 2,284 8.3 58.3°
Maximum altitude 11:44:40 24° 35° (NE) 1,630 7.7 58.1°
Drops below altitude 10° 11:49:11 10° 88° (E) 2,479 8.6 57.9°
Sets 11:52:17 0° 102° (ESE) 3,477 9.4 57.7°
